TimeMST,TemperatureF,Dew PointF,Humidity,Sea Level PressureIn,VisibilityMPH,Wind Direction,Wind SpeedMPH,Gust SpeedMPH,PrecipitationIn,Events,Conditions,WindDirDegrees,DateUTC
12:08 AM,21.2,21.2,100,29.94,-9999.0,North,-9999.0,-,0.02,,Overcast,0,2013-01-28 07:08:00
12:29 AM,21.2,21.2,100,29.92,-9999.0,North,-9999.0,-,0.04,,Overcast,0,2013-01-28 07:29:00
12:48 AM,21.2,19.4,93,29.91,-9999.0,North,-9999.0,-,0.06,,Overcast,0,2013-01-28 07:48:00
1:09 AM,21.2,19.4,93,29.91,-9999.0,North,-9999.0,-,0.01,,Overcast,0,2013-01-28 08:09:00
1:29 AM,21.2,19.4,93,29.89,-9999.0,North,-9999.0,-,0.02,,Overcast,0,2013-01-28 08:29:00
1:49 AM,19.4,19.4,100,29.88,-9999.0,North,-9999.0,-,0.03,,Overcast,0,2013-01-28 08:49:00
2:09 AM,19.4,19.4,100,29.89,-9999.0,North,-9999.0,-,0.01,,Overcast,0,2013-01-28 09:09:00
2:29 AM,21.2,19.4,93,29.88,-9999.0,South,13.8,29.9,0.02,,Overcast,180,2013-01-28 09:29:00
2:49 AM,21.2,19.4,93,29.85,-9999.0,SSW,21.9,43.7,0.03,,Overcast,200,2013-01-28 09:49:00
3:09 AM,21.2,19.4,93,29.83,-9999.0,North,-9999.0,-,N/A,,Overcast,0,2013-01-28 10:09:00
3:29 AM,21.2,19.4,93,29.83,-9999.0,North,-9999.0,-,0.01,,Overcast,0,2013-01-28 10:29:00
3:49 AM,21.2,19.4,93,29.82,-9999.0,North,-9999.0,-,0.01,,Overcast,0,2013-01-28 10:49:00
4:09 AM,21.2,19.4,93,29.81,-9999.0,North,-9999.0,-,0.01,,Overcast,0,2013-01-28 11:09:00
4:29 AM,21.2,19.4,93,29.79,-9999.0,North,-9999.0,-,0.02,,Overcast,0,2013-01-28 11:29:00
4:49 AM,21.2,19.4,93,29.77,-9999.0,SSW,21.9,-,0.03,,Overcast,210,2013-01-28 11:49:00
5:09 AM,21.2,19.4,93,29.76,-9999.0,North,-9999.0,-,0.01,,Overcast,0,2013-01-28 12:09:00
5:29 AM,21.2,19.4,93,29.75,-9999.0,SSW,25.3,52.9,0.01,,Overcast,200,2013-01-28 12:29:00
5:49 AM,19.4,19.4,100,29.75,-9999.0,South,27.6,50.6,0.07,,Overcast,190,2013-01-28 12:49:00
6:09 AM,19.4,19.4,100,29.74,-9999.0,SSW,18.4,47.2,0.02,,Overcast,210,2013-01-28 13:09:00
6:29 AM,19.4,19.4,100,29.73,-9999.0,North,-9999.0,-,0.05,,Overcast,0,2013-01-28 13:29:00
6:49 AM,19.4,19.4,100,29.73,-9999.0,North,-9999.0,-,0.08,,Overcast,0,2013-01-28 13:49:00
7:09 AM,19.4,19.4,100,29.74,-9999.0,SSW,17.3,-,0.01,,Overcast,200,2013-01-28 14:09:00
7:29 AM,19.4,19.4,100,29.73,-9999.0,North,-9999.0,-,0.03,,Overcast,0,2013-01-28 14:29:00
7:49 AM,19.4,19.4,100,29.73,-9999.0,North,-9999.0,-,0.06,,Overcast,0,2013-01-28 14:49:00
8:09 AM,19.4,19.4,100,29.74,-9999.0,SW,19.6,-,N/A,,Overcast,220,2013-01-28 15:09:00
8:28 AM,19.4,19.4,100,29.74,-9999.0,North,-9999.0,-,0.03,,Overcast,0,2013-01-28 15:28:00
8:48 AM,19.4,19.4,100,29.74,-9999.0,North,-9999.0,-,0.03,,Overcast,0,2013-01-28 15:48:00
9:09 AM,19.4,17.6,93,29.71,-9999.0,North,-9999.0,-,N/A,,Overcast,0,2013-01-28 16:09:00
9:29 AM,19.4,17.6,93,29.71,-9999.0,North,-9999.0,-,N/A,,Overcast,0,2013-01-28 16:29:00
9:49 AM,19.4,17.6,93,29.72,-9999.0,North,-9999.0,-,0.01,,Overcast,0,2013-01-28 16:49:00
10:09 AM,19.4,17.6,93,29.72,-9999.0,North,-9999.0,-,0.01,,Overcast,0,2013-01-28 17:09:00
10:29 AM,19.4,17.6,93,29.73,-9999.0,North,-9999.0,-,0.01,,Overcast,0,2013-01-28 17:29:00
10:48 AM,17.6,15.8,93,29.72,-9999.0,North,-9999.0,-,0.05,,Overcast,0,2013-01-28 17:48:00
11:09 AM,17.6,15.8,93,29.72,-9999.0,North,-9999.0,-,N/A,,Overcast,0,2013-01-28 18:09:00
11:29 AM,17.6,15.8,93,29.71,-9999.0,North,-9999.0,-,0.09,,Overcast,0,2013-01-28 18:29:00
11:49 AM,17.6,15.8,93,29.72,-9999.0,North,-9999.0,-,0.15,,Overcast,0,2013-01-28 18:49:00
12:09 PM,17.6,15.8,93,29.70,-9999.0,North,-9999.0,-,N/A,,Unknown,0,2013-01-28 19:09:00
12:28 PM,17.6,15.8,93,29.66,-9999.0,North,-9999.0,-,N/A,,Unknown,0,2013-01-28 19:28:00
12:49 PM,17.6,15.8,93,29.68,-9999.0,North,-9999.0,-,0.05,,Overcast,0,2013-01-28 19:49:00
1:09 PM,17.6,15.8,93,29.65,-9999.0,North,-9999.0,-,N/A,,Overcast,0,2013-01-28 20:09:00
1:29 PM,17.6,15.8,93,29.63,-9999.0,SSW,33.4,-,0.03,,Overcast,210,2013-01-28 20:29:00
1:49 PM,-9999,-9999,N/A,29.61,-9999.0,North,-9999.0,-,N/A,,Unknown,0,2013-01-28 20:49:00
2:09 PM,17.6,15.8,93,29.64,-9999.0,North,-9999.0,-,0.01,,Unknown,0,2013-01-28 21:09:00
2:29 PM,17.6,15.8,93,29.64,-9999.0,SW,35.7,50.6,0.01,,Overcast,220,2013-01-28 21:29:00
2:49 PM,17.6,14.0,86,29.66,-9999.0,SW,27.6,-,0.04,,Overcast,220,2013-01-28 21:49:00
3:09 PM,15.8,14.0,93,29.66,-9999.0,North,-9999.0,-,0.01,,Overcast,0,2013-01-28 22:09:00
3:29 PM,15.8,14.0,93,29.66,-9999.0,SW,29.9,-,0.01,,Overcast,230,2013-01-28 22:29:00
3:49 PM,15.8,14.0,93,29.69,-9999.0,SW,27.6,-,0.01,,Overcast,220,2013-01-28 22:49:00
4:09 PM,14.0,12.2,93,29.68,-9999.0,North,-9999.0,-,N/A,,Overcast,0,2013-01-28 23:09:00
4:29 PM,14.0,12.2,93,29.68,-9999.0,SW,20.7,35.7,N/A,,Overcast,220,2013-01-28 23:29:00
4:49 PM,14.0,12.2,93,29.67,-9999.0,SSW,18.4,-,0.01,,Overcast,210,2013-01-28 23:49:00
5:09 PM,14.0,12.2,93,29.67,-9999.0,North,-9999.0,-,N/A,,Overcast,0,2013-01-29 00:09:00
5:29 PM,14.0,12.2,93,29.66,-9999.0,SSW,26.5,-,N/A,,Overcast,210,2013-01-29 00:29:00
5:49 PM,12.2,10.4,92,29.66,-9999.0,North,-9999.0,-,N/A,,Overcast,0,2013-01-29 00:49:00
6:09 PM,12.2,10.4,92,29.66,-9999.0,North,-9999.0,-,N/A,,Overcast,0,2013-01-29 01:09:00
6:29 PM,10.4,8.6,92,29.66,-9999.0,North,-9999.0,-,N/A,,Overcast,0,2013-01-29 01:29:00
6:49 PM,10.4,8.6,92,29.67,-9999.0,North,-9999.0,-,N/A,,Overcast,0,2013-01-29 01:49:00
7:09 PM,10.4,8.6,92,29.67,-9999.0,North,-9999.0,-,N/A,,Overcast,0,2013-01-29 02:09:00
7:29 PM,10.4,8.6,92,29.65,-9999.0,North,-9999.0,-,N/A,,Overcast,0,2013-01-29 02:29:00
7:49 PM,10.4,8.6,92,29.66,-9999.0,North,-9999.0,-,N/A,,Overcast,0,2013-01-29 02:49:00
8:09 PM,8.6,6.8,92,29.65,-9999.0,North,-9999.0,-,N/A,,Overcast,0,2013-01-29 03:09:00
8:29 PM,8.6,6.8,92,29.66,-9999.0,North,-9999.0,-,0.01,,Overcast,0,2013-01-29 03:29:00
8:49 PM,8.6,5.0,85,29.64,-9999.0,North,-9999.0,-,0.01,,Overcast,0,2013-01-29 03:49:00
9:09 PM,8.6,5.0,85,29.64,-9999.0,North,-9999.0,-,N/A,,Overcast,0,2013-01-29 04:09:00
9:29 PM,8.6,5.0,85,29.65,-9999.0,North,-9999.0,-,N/A,,Overcast,0,2013-01-29 04:29:00
9:49 PM,8.6,5.0,85,29.64,-9999.0,North,-9999.0,-,N/A,,Overcast,0,2013-01-29 04:49:00
10:09 PM,8.6,5.0,85,29.63,-9999.0,SSW,20.7,-,N/A,,Overcast,200,2013-01-29 05:09:00
10:29 PM,6.8,5.0,92,29.64,-9999.0,SW,12.7,25.3,N/A,,Overcast,220,2013-01-29 05:29:00
10:49 PM,8.6,5.0,85,29.62,-9999.0,North,-9999.0,-,0.02,,Overcast,0,2013-01-29 05:49:00
11:09 PM,6.8,5.0,92,29.61,-9999.0,North,-9999.0,-,0.01,,Overcast,0,2013-01-29 06:09:00
11:28 PM,6.8,3.2,85,29.61,-9999.0,North,-9999.0,-,0.02,,Overcast,0,2013-01-29 06:28:00
11:49 PM,5.0,3.2,92,29.61,-9999.0,North,-9999.0,-,0.02,,Overcast,0,2013-01-29 06:49:00